TimeEDT,TemperatureF,Dew PointF,Humidity,Sea Level PressureIn,VisibilityMPH,Wind Direction,Wind SpeedMPH,Gust SpeedMPH,PrecipitationIn,Events,Conditions,WindDirDegrees,DateUTC
12:15 AM,59.0,59.0,100,30.06,10.0,ENE,3.5,-,N/A,,Scattered Clouds,60,2012-10-27 04:15:00
12:35 AM,59.0,57.2,94,30.06,10.0,East,6.9,-,N/A,,Scattered Clouds,80,2012-10-27 04:35:00
12:55 AM,60.8,59.0,94,30.05,10.0,East,4.6,-,N/A,,Overcast,90,2012-10-27 04:55:00
1:15 AM,60.8,59.0,94,30.04,10.0,East,8.1,-,N/A,,Overcast,80,2012-10-27 05:15:00
1:35 AM,60.8,59.0,94,30.03,10.0,East,5.8,-,N/A,,Overcast,80,2012-10-27 05:35:00
1:55 AM,60.8,59.0,94,30.03,10.0,ENE,5.8,-,N/A,,Overcast,60,2012-10-27 05:55:00
2:15 AM,60.8,59.0,94,30.02,10.0,East,5.8,-,N/A,,Overcast,80,2012-10-27 06:15:00
2:35 AM,60.8,59.0,94,30.02,10.0,ENE,5.8,-,N/A,,Overcast,70,2012-10-27 06:35:00
2:55 AM,60.8,59.0,94,30.00,10.0,ENE,4.6,-,N/A,,Overcast,70,2012-10-27 06:55:00
3:15 AM,60.8,59.0,94,30.00,10.0,ENE,5.8,-,N/A,,Overcast,70,2012-10-27 07:15:00
3:35 AM,60.8,59.0,94,29.99,10.0,East,4.6,-,N/A,,Overcast,90,2012-10-27 07:35:00
3:55 AM,60.8,59.0,94,29.98,7.0,Calm,Calm,-,N/A,,Overcast,0,2012-10-27 07:55:00
4:35 AM,60.8,59.0,94,29.97,10.0,ENE,4.6,-,N/A,,Overcast,70,2012-10-27 08:35:00
4:55 AM,60.8,59.0,94,29.97,7.0,NE,3.5,-,N/A,,Overcast,50,2012-10-27 08:55:00
5:15 AM,59.0,59.0,100,29.96,7.0,North,4.6,-,N/A,,Overcast,10,2012-10-27 09:15:00
5:35 AM,59.0,59.0,100,29.97,7.0,Calm,Calm,-,N/A,,Overcast,0,2012-10-27 09:35:00
5:55 AM,59.0,59.0,100,29.97,7.0,NNE,3.5,-,N/A,,Overcast,20,2012-10-27 09:55:00
6:15 AM,59.0,59.0,100,29.97,5.0,Calm,Calm,-,N/A,,Overcast,0,2012-10-27 10:15:00
6:35 AM,59.0,59.0,100,29.97,5.0,NE,3.5,-,N/A,,Overcast,40,2012-10-27 10:35:00
6:55 AM,59.0,59.0,100,29.97,3.0,Calm,Calm,-,N/A,,Drizzle,0,2012-10-27 10:55:00
7:15 AM,57.2,57.2,100,29.97,5.0,Calm,Calm,-,N/A,,Overcast,0,2012-10-27 11:15:00
7:55 AM,57.2,57.2,100,29.97,3.0,Calm,Calm,-,0.01,,Heavy Drizzle,0,2012-10-27 11:55:00
8:15 AM,57.2,57.2,100,29.98,4.0,Calm,Calm,-,N/A,,Drizzle,0,2012-10-27 12:15:00
8:35 AM,57.2,57.2,100,29.99,1.8,Calm,Calm,-,0.01,,Heavy Drizzle,0,2012-10-27 12:35:00
8:55 AM,57.2,57.2,100,29.99,1.8,Calm,Calm,-,0.02,,Heavy Drizzle,0,2012-10-27 12:55:00
9:15 AM,57.2,57.2,100,29.99,2.0,NE,3.5,-,N/A,,Drizzle,40,2012-10-27 13:15:00
9:35 AM,59.0,59.0,100,29.99,2.0,Calm,Calm,-,0.01,,Heavy Drizzle,0,2012-10-27 13:35:00
10:15 AM,59.0,59.0,100,29.99,3.0,Calm,Calm,-,N/A,,Overcast,0,2012-10-27 14:15:00
10:35 AM,59.0,59.0,100,29.99,5.0,Calm,Calm,-,N/A,,Overcast,0,2012-10-27 14:35:00
10:55 AM,59.0,59.0,100,29.98,5.0,NE,3.5,-,N/A,,Overcast,40,2012-10-27 14:55:00
11:35 AM,60.8,60.8,100,29.97,5.0,Calm,Calm,-,N/A,,Overcast,0,2012-10-27 15:35:00
11:55 AM,60.8,60.8,100,29.97,10.0,ENE,6.9,-,N/A,,Overcast,70,2012-10-27 15:55:00
12:15 PM,60.8,60.8,100,29.96,10.0,NNE,3.5,-,N/A,,Overcast,20,2012-10-27 16:15:00
12:35 PM,60.8,60.8,100,29.95,10.0,NNE,4.6,-,N/A,,Overcast,30,2012-10-27 16:35:00
12:55 PM,62.6,62.6,100,29.94,10.0,NE,4.6,-,N/A,,Overcast,40,2012-10-27 16:55:00
1:15 PM,62.6,60.8,94,29.94,10.0,NNE,5.8,-,N/A,,Overcast,30,2012-10-27 17:15:00
1:35 PM,62.6,60.8,94,29.93,10.0,NNE,4.6,-,N/A,,Overcast,20,2012-10-27 17:35:00
1:55 PM,62.6,60.8,94,29.92,10.0,NNE,4.6,-,N/A,,Overcast,20,2012-10-27 17:55:00
2:15 PM,64.4,60.8,88,29.92,10.0,NE,5.8,-,N/A,,Overcast,50,2012-10-27 18:15:00
2:35 PM,62.6,60.8,94,29.91,7.0,NNE,4.6,-,N/A,,Overcast,30,2012-10-27 18:35:00
2:55 PM,64.4,60.8,88,29.91,10.0,North,5.8,-,N/A,,Overcast,10,2012-10-27 18:55:00
3:15 PM,64.4,60.8,88,29.90,10.0,NNW,8.1,-,N/A,,Overcast,340,2012-10-27 19:15:00
3:35 PM,64.4,59.0,83,29.89,10.0,North,8.1,-,N/A,,Mostly Cloudy,10,2012-10-27 19:35:00
3:55 PM,64.4,60.8,88,29.89,10.0,NNE,4.6,-,N/A,,Mostly Cloudy,20,2012-10-27 19:55:00
4:15 PM,64.4,59.0,83,29.89,10.0,NNE,4.6,-,N/A,,Overcast,30,2012-10-27 20:15:00
4:35 PM,64.4,60.8,88,29.88,10.0,East,6.9,-,N/A,,Overcast,80,2012-10-27 20:35:00
4:55 PM,64.4,59.0,83,29.88,10.0,ENE,6.9,-,N/A,,Overcast,60,2012-10-27 20:55:00
5:15 PM,64.4,59.0,83,29.88,10.0,ENE,3.5,-,N/A,,Overcast,60,2012-10-27 21:15:00
5:35 PM,64.4,59.0,83,29.87,10.0,Calm,Calm,-,N/A,,Overcast,0,2012-10-27 21:35:00
5:55 PM,62.6,59.0,88,29.87,10.0,Calm,Calm,-,N/A,,Overcast,0,2012-10-27 21:55:00
6:15 PM,60.8,57.2,88,29.87,7.0,WNW,5.8,-,N/A,,Overcast,290,2012-10-27 22:15:00
6:35 PM,59.0,55.4,88,29.87,7.0,WNW,6.9,-,N/A,,Overcast,290,2012-10-27 22:35:00
6:55 PM,59.0,55.4,88,29.88,7.0,West,3.5,-,N/A,,Overcast,280,2012-10-27 22:55:00
7:15 PM,57.2,55.4,94,29.89,10.0,WNW,4.6,-,N/A,,Overcast,290,2012-10-27 23:15:00
7:35 PM,59.0,55.4,88,29.89,10.0,NNW,8.1,-,N/A,,Overcast,330,2012-10-27 23:35:00
7:55 PM,59.0,55.4,88,29.90,10.0,NW,8.1,-,N/A,,Overcast,310,2012-10-27 23:55:00
8:15 PM,57.2,55.4,94,29.90,10.0,West,3.5,-,N/A,,Overcast,280,2012-10-28 00:15:00
8:35 PM,57.2,55.4,94,29.90,10.0,Calm,Calm,-,N/A,,Overcast,0,2012-10-28 00:35:00
8:55 PM,55.4,55.4,100,29.89,10.0,West,4.6,-,N/A,,Overcast,280,2012-10-28 00:55:00
9:15 PM,55.4,55.4,100,29.90,10.0,West,3.5,-,N/A,,Overcast,270,2012-10-28 01:15:00
9:35 PM,55.4,53.6,94,29.90,10.0,West,4.6,-,N/A,,Overcast,280,2012-10-28 01:35:00
9:55 PM,55.4,53.6,94,29.90,10.0,WNW,5.8,-,N/A,,Overcast,290,2012-10-28 01:55:00
10:15 PM,55.4,53.6,94,29.90,10.0,WNW,5.8,-,N/A,,Overcast,290,2012-10-28 02:15:00
10:55 PM,53.6,51.8,94,29.91,10.0,West,4.6,-,N/A,,Overcast,280,2012-10-28 02:55:00
11:35 PM,53.6,51.8,94,29.90,10.0,NNW,6.9,-,N/A,,Overcast,330,2012-10-28 03:35:00
11:55 PM,53.6,51.8,94,29.90,10.0,NW,8.1,-,N/A,,Overcast,320,2012-10-28 03:55:00